Montgomery, AL

11:18 AM CST on February 20, 2017 (GMT -0600)
Maxwell Air Force Base

Weather History for KMXF - September, 2013

Change the Weather History Date:

Tuesday, September 10, 2013

  Actual Average Record
Temperature  
Mean Temperature 82 °F -  
Max Temperature 93 °F 86 °F 98 °F (2002)
Min Temperature 73 °F 67 °F 57 °F (2011)
Cooling Degree Days 18    
Growing Degree Days 32 (Base 50)    
Moisture  
Dew Point 70 °F    
Average Humidity 70    
Maximum Humidity 95    
Minimum Humidity 42    
Precipitation  
Precipitation 0.00 in - - ()
Sea Level Pressure  
Sea Level Pressure 30.13 in    
Wind  
Wind Speed 6 mph (ENE)    
Max Wind Speed 32 mph    
Max Gust Speed 71 mph    
Visibility 10 miles    
Events      
Averages and records for this station are not official NWS values.
T = Trace of Precipitation, MM = Missing Value Source: NWS Daily Summary

Daily Weather History Graph

Daily Weather History Graph

Search for Another Location

Airport or City:

Trip Planner

Search our weather history database for the weather conditions in past years. The results will help you decide how hot, cold, wet, or windy it might be!

Date:

Astronomy

Sep. 10, 2013 Rise Set
Actual Time 6:26 AM CDT 6:57 PM CDT
Civil Twilight 6:01 AM CDT 7:22 PM CDT
Nautical Twilight 5:32 AM CDT 7:51 PM CDT
Astronomical Twilight 5:02 AM CDT 8:20 PM CDT
Moon 11:31 AM CDT (9/10) 10:21 PM CDT (9/10)
Length of Visible Light 13h 20m
Length of Day
12h 31m
Waxing Crescent, 28% of the Moon is Illuminated
Sep 10
Waxing Crescent
Sep 12
First Quarter
Sep 19
Full
Sep 26
Last Quarter
Oct 4
New

Hourly Weather History & Observations

Time (CDT) Temp. Heat Index Dew Point Humidity Pressure Visibility Wind Dir Wind Speed Gust Speed Precip Events Conditions
12:58 AM 76.6 °F - 74.5 °F 93% 30.08 in 10.0 mi NNW 2.3 mph - N/A   Mostly Cloudy
1:58 AM 77.7 °F - 72.7 °F 84% 30.08 in 10.0 mi ESE 2.3 mph - N/A   Clear
2:58 AM 75.0 °F - 73.2 °F 94% 30.06 in 10.0 mi NNW 5.8 mph - N/A   Clear
3:58 AM 74.8 °F - 72.7 °F 93% 30.08 in 10.0 mi NNE 4.6 mph - N/A   Clear
4:58 AM 74.3 °F - 72.5 °F 94% 30.09 in 10.0 mi NE 4.6 mph - N/A   Clear
5:58 AM 73.9 °F - 72.1 °F 94% 30.12 in 10.0 mi NE 4.6 mph - N/A   Clear
6:58 AM 73.8 °F - 72.3 °F 95% 30.14 in 8.0 mi East 3.5 mph - N/A   Clear
7:58 AM 76.3 °F - 72.3 °F 87% 30.16 in 10.0 mi NE 2.3 mph - N/A   Clear
8:58 AM 80.8 °F 84.6 °F 70.9 °F 72% 30.17 in 10.0 mi ESE 5.8 mph - N/A   Clear
9:56 AM 84.2 °F 89.6 °F 71.6 °F 66% 30.17 in 10.0 mi SSE 4.6 mph - N/A   Clear
10:56 AM 86.0 °F 90.4 °F 69.8 °F 58% 30.18 in 10.0 mi Variable 4.6 mph - N/A   Clear
11:56 AM 89.6 °F 94.7 °F 69.8 °F 52% 30.17 in 10.0 mi ESE 6.9 mph - N/A   Clear
12:58 PM 90.7 °F 95.9 °F 69.6 °F 50% 30.16 in 10.0 mi Variable 5.8 mph - N/A   Scattered Clouds
1:58 PM 89.6 °F 94.7 °F 69.8 °F 52% 30.14 in 10.0 mi ESE 9.2 mph - N/A   Scattered Clouds
2:07 PM 89.6 °F 93.4 °F 68.0 °F 49% 30.13 in 10.0 mi West 32.2 mph 71.3 mph N/A   Squalls
2:08 PM 89.6 °F 93.4 °F 68.0 °F 49% 30.13 in 10.0 mi North 25.3 mph 71.3 mph N/A   Squalls
2:58 PM 91.4 °F 94.0 °F 66.2 °F 43% 30.12 in 10.0 mi East 5.8 mph - N/A   Partly Cloudy
3:58 PM 92.8 °F 96.1 °F 66.4 °F 42% 30.11 in 10.0 mi SE 10.4 mph - N/A   Scattered Clouds
4:58 PM 90.7 °F 93.6 °F 66.4 °F 45% 30.09 in 10.0 mi ESE 9.2 mph - N/A   Clear
5:58 PM 89.4 °F 92.3 °F 66.7 °F 47% 30.11 in 10.0 mi ESE 11.5 mph - N/A   Scattered Clouds
6:58 PM 86.2 °F 89.1 °F 67.3 °F 53% 30.11 in 10.0 mi East 5.8 mph - N/A   Clear
7:58 PM 81.7 °F 84.5 °F 67.8 °F 63% 30.13 in 10.0 mi SE 5.8 mph - N/A   Clear
8:58 PM 77.2 °F - 69.4 °F 77% 30.14 in 10.0 mi Calm Calm - N/A   Clear
9:58 PM 74.8 °F - 71.6 °F 90% 30.15 in 10.0 mi NNW 3.5 mph - N/A   Clear
10:58 PM 74.3 °F - 72.0 °F 92% 30.15 in 10.0 mi NNW 3.5 mph - N/A   Clear
11:58 PM 74.3 °F - 70.9 °F 89% 30.14 in 10.0 mi North 3.5 mph - N/A   Clear